Probability
3 1 0 0 0 0 0 0 0 0 0 0 0 0 0 0 0 0 0 0 1 0 0 0 0 0 0 0 0 0 0 0 0 0 0 0 0 0 0 0 0 0 0 0 0 0 0 0 0
2 1 0 0 0 0 0 0 0 0 0 0 0 0 0 0 0 0 1 2 2 1 0 0 0 0 0 0 0 0 0 0 0 0 0 0 0 0 0 0 0 0 0 0 0 0 0 0 0
2 1 0 0 0 0 0 0 0 0 0 0 0 0 0 0 0 1 4 6 6 3 0 0 0 0 0 0 0 0 0 0 0 0 0 0 0 0 0 0 0 0 0 0 0 0 0 0 0
3 1 0 0 0 0 0 0 0 0 0 0 0 0 1 2 2 4 7 11 11 7 2 0 0 0 0 0 0 0 0 0 0 0 0 0 0 0 0 0 0 0 0 0 0 0 0 0 0
1 0 0 0 0 0 0 0 0 0 0 0 0 1 5 10 14 13 9 10 14 12 6 3 2 1 0 0 0 0 0 0 0 0 0 0 0 0 0 0 0 0 0 0 0 0 0 0 0
0 0 0 0 0 0 0 0 0 0 0 0 0 2 10 25 34 28 15 11 16 19 15 8 4 3 1 0 0 0 0 0 0 0 0 0 0 0 0 0 0 0 0 0 0 0 0 0 0
0 0 0 0 0 0 0 0 0 0 0 0 0 2 12 32 46 43 32 25 28 31 27 18 10 5 2 1 0 0 0 0 0 0 0 0 0 0 0 0 0 0 0 0 0 0 0 0 0
0 0 0 0 0 0 0 0 0 0 0 0 0 1 8 25 46 56 53 48 45 45 39 28 16 8 3 1 0 0 0 0 0 0 0 0 0 0 0 0 0 0 0 0 0 0 0 0 0
0 0 0 0 0 0 0 0 0 0 1 2 3 3 8 25 47 59 58 52 48 48 45 34 21 10 4 2 1 0 0 0 0 0 0 0 0 0 0 0 0 0 0 0 0 0 0 0 0
0 0 0 0 0 0 0 0 0 0 1 3 5 8 17 36 49 51 45 37 34 39 43 37 24 12 6 4 2 1 0 0 0 0 0 0 0 0 0 0 0 0 0 0 0 0 0 0 0
0 0 0 0 0 0 0 0 0 0 0 2 4 9 23 40 47 42 33 23 19 26 35 33 25 15 7 4 2 1 0 0 0 0 0 0 0 0 0 0 0 0 0 0 0 0 0 0 0
0 0 0 0 0 0 0 0 0 0 0 0 1 6 19 34 39 36 32 22 15 15 21 25 23 17 8 4 2 1 0 0 0 0 0 0 0 0 0 0 0 0 0 0 0 0 0 0 0
0 0 0 0 0 0 0 0 0 0 0 1 2 5 14 25 31 32 31 25 15 10 11 17 20 17 11 6 3 1 0 0 0 0 0 0 0 0 0 0 0 0 0 0 0 0 0 0 0
0 0 0 0 0 0 0 0 0 0 1 2 4 6 11 19 25 27 27 25 17 9 7 11 15 15 13 9 3 0 0 0 0 0 0 0 0 0 0 0 0 0 0 0 0 0 0 0 0
0 0 0 0 0 0 0 0 0 0 1 3 4 5 9 14 19 21 23 23 19 11 5 4 7 10 12 10 5 1 1 1 0 0 0 0 0 0 0 0 0 0 0 0 0 0 0 0 0
0 0 0 0 0 0 0 0 0 0 1 2 3 3 5 8 11 15 19 21 20 13 5 1 2 5 8 9 6 3 2 2 1 0 0 0 0 0 0 0 0 0 0 0 0 0 0 0 0
0 0 0 0 0 0 0 0 0 0 0 1 1 1 1 2 4 8 13 16 17 15 9 3 2 3 5 8 8 4 3 2 1 0 0 0 0 0 0 0 0 0 0 0 0 0 0 0 0
0 0 0 0 0 0 0 0 0 0 0 0 0 0 0 0 1 3 7 11 14 14 11 7 5 5 6 7 7 4 1 1 0 0 0 0 0 0 0 0 0 0 0 0 0 0 0 0 0
0 0 0 0 0 0 0 0 0 0 0 0 0 0 0 0 0 0 3 6 10 11 10 8 8 7 7 7 5 2 1 0 0 0 0 0 0 0 0 0 0 0 0 0 0 0 0 0 0
0 0 0 0 0 0 0 0 0 0 0 0 0 0 0 0 0 0 1 3 6 8 8 7 7 7 7 7 5 2 0 0 0 0 0 0 0 0 0 0 0 0 0 0 0 0 0 0 0
0 0 0 0 0 0 0 0 0 0 0 0 0 0 0 0 0 0 0 1 3 6 7 7 6 6 7 8 6 3 1 0 0 0 0 0 0 0 0 0 0 0 0 0 0 0 0 0 0
0 0 0 0 0 0 0 0 0 0 0 0 0 0 0 0 0 0 0 0 2 4 6 8 8 7 7 7 8 6 3 1 0 0 0 0 0 0 0 0 0 0 0 0 0 0 0 0 0
0 0 0 0 0 0 0 0 0 0 0 0 0 0 0 0 0 0 0 0 0 2 5 7 8 8 6 7 9 8 5 2 1 0 0 0 0 0 0 0 0 0 0 0 0 0 0 0 0
0 0 0 0 0 0 0 0 0 0 0 0 0 0 0 0 0 0 0 0 0 1 4 6 7 7 6 6 8 8 7 4 1 0 0 0 0 0 0 0 0 0 0 0 0 0 0 0 0
0 0 0 0 0 0 0 0 0 0 0 0 0 0 0 0 0 0 0 0 0 0 2 3 5 5 5 5 6 7 6 4 1 0 0 0 0 0 0 0 0 0 0 0 0 0 0 0 0
0 0 0 0 0 0 0 0 0 0 0 0 0 0 0 0 0 0 0 0 0 0 0 1 3 4 4 4 3 3 3 1 0 0 0 0 0 0 0 0 0 0 0 0 0 0 0 0 0
0 0 0 0 0 0 0 0 0 0 0 0 0 0 0 0 0 0 0 0 0 0 0 1 2 3 3 2 1 1 0 0 0 0 0 0 0 0 0 0 0 0 0 0 0 0 0 0 0
0 0 0 0 0 0 0 0 0 0 0 0 0 0 0 0 0 0 0 0 0 0 0 1 2 2 1 1 0 0 0 0 0 0 0 0 0 0 0 0 0 0 0 0 0 0 0 0 0
0 0 0 0 0 0 0 0 0 0 0 0 0 0 0 0 0 0 0 0 0 0 0 0 1 1 0 0 0 0 0 0 0 0 0 0 0 0 0 0 0 0 0 0 0 0 0 0 0
0 0 0 0 0 0 0 0 0 0 0 0 0 0 0 0 0 0 0 0 0 0 0 0 0 0 0 0 0 0 0 0 0 0 0 0 0 0 0 0 0 0 0 0 0 0 0 0 0
Wind_Speed
5 3 3 4 6 4 3 5 3 3 3 2 2 2 4 5 5 3 2 7 10 11 10 13 15 15 15 15 15 14 14 13 13 13 12 12 11 11 11 12 12 13 13 14 14 14 14 14 14
2 2 4 5 5 2 5 4 4 4 3 3 1 1 2 0 1 4 5 6 12 12 10 10 14 15 15 15 14 14 13 13 12 12 11 11 11 11 11 12 12 13 13 13 13 13 13 13 12
1 3 3 5 4 7 5 4 4 4 4 2 2 1 1 1 3 5 5 9 11 10 8 10 15 15 15 15 14 14 13 12 12 11 11 11 11 11 11 12 13 13 13 13 13 12 12 11 10
2 3 4 4 6 6 5 2 1 4 4 2 1 2 1 2 2 5 9 12 12 9 8 11 14 15 15 14 14 13 13 12 11 10 10 10 11 11 12 12 12 12 12 12 12 11 11 10 9
3 3 3 3 6 5 4 3 1 2 3 3 2 1 3 6 3 8 12 13 12 9 8 11 14 15 15 14 13 13 12 12 11 10 10 11 11 12 12 12 11 11 11 11 10 10 9 9 9
3 3 5 7 7 4 4 3 1 0 1 2 1 1 2 2 5 10 12 12 10 9 9 10 14 14 14 14 13 13 12 11 10 10 10 10 11 12 11 11 10 10 10 9 9 9 8 8 8
4 4 6 7 6 5 5 3 3 1 1 2 1 1 1 2 5 9 10 10 9 8 8 7 9 11 12 12 12 12 11 10 9 9 8 8 9 11 11 10 9 9 9 8 7 7 7 7 7
4 4 5 6 8 7 3 3 2 3 2 1 2 3 3 3 7 8 9 9 8 7 7 7 8 8 7 8 11 11 10 9 8 8 8 8 8 9 9 7 7 8 8 7 6 5 5 6 6
3 3 7 9 9 6 3 2 1 1 2 1 0 2 2 8 10 10 9 8 8 8 6 7 7 7 7 7 8 9 9 8 7 6 8 7 4 4 5 5 6 6 6 6 5 4 4 5 5
4 6 8 6 5 4 3 3 1 1 1 1 1 2 4 10 12 12 12 11 11 10 8 7 8 8 7 6 5 4 4 5 4 4 5 3 3 3 3 4 5 5 5 4 4 3 3 4 2
5 6 4 3 3 3 3 2 1 2 3 3 3 2 7 10 12 12 11 11 11 9 9 8 7 8 7 5 5 3 3 3 4 4 4 3 3 2 2 2 2 2 3 2 1 1 2 2 1
4 3 3 2 2 3 3 2 2 4 7 4 4 5 8 12 14 13 13 12 10 9 9 8 8 7 7 6 5 4 3 3 3 4 5 4 2 2 2 1 2 1 1 2 1 1 0 0 0
3 2 2 1 1 2 2 2 2 5 5 2 1 4 8 11 11 9 9 9 9 10 10 9 9 8 7 6 5 5 4 4 4 4 4 4 3 3 3 2 2 2 2 2 2 2 2 2 1
4 2 1 0 1 0 2 2 2 6 1 0 1 4 6 8 9 8 9 10 11 11 10 9 9 9 8 6 6 5 5 4 4 4 5 5 4 4 3 3 3 3 3 3 3 3 2 2 2
3 3 0 1 2 1 2 4 7 6 0 1 2 3 4 5 6 8 10 9 10 10 9 9 9 9 9 8 7 6 5 5 4 4 5 6 5 5 4 4 4 4 3 3 2 3 2 2 2
4 4 4 3 4 2 5 9 9 4 2 3 2 3 3 4 5 5 6 6 6 7 8 8 8 8 9 8 7 5 5 5 5 5 5 6 7 6 5 4 5 4 3 3 3 3 3 3 3
5 6 6 3 4 4 6 7 5 3 4 5 4 3 3 4 3 3 4 5 6 6 7 7 7 8 8 7 6 5 5 5 5 4 5 6 7 7 6 5 5 5 4 4 4 4 3 4 4
6 5 5 6 4 6 6 6 4 1 4 6 5 3 3 4 5 2 3 3 4 4 5 6 5 6 6 5 4 3 3 4 4 4 5 6 6 7 7 5 5 5 4 4 5 5 5 4 4
4 5 4 4 3 5 7 7 6 4 3 6 6 5 5 6 3 1 1 2 3 3 4 5 5 5 4 3 3 3 3 3 3 3 4 5 5 6 6 5 5 5 6 7 7 5 5 5 3
3 4 3 1 2 4 4 7 6 6 7 8 8 8 7 5 3 2 1 2 3 4 4 4 4 4 5 4 3 2 2 2 3 3 3 3 4 4 4 5 5 5 5 6 6 5 3 3 4
3 5 5 3 2 2 1 5 7 7 7 7 8 7 7 8 7 4 2 2 3 3 3 4 4 3 3 3 2 2 2 1 1 1 1 2 3 3 3 4 4 5 5 5 6 7 7 5 4
3 4 4 4 4 2 3 4 7 6 7 10 11 9 9 7 6 5 4 3 3 3 3 3 3 3 2 3 3 4 4 3 2 1 1 1 1 2 2 3 3 4 4 5 6 6 6 5 5
2 3 4 3 3 1 1 3 8 3 8 13 12 11 9 8 8 7 6 5 4 3 3 3 4 3 3 3 3 4 3 2 1 1 1 1 0 0 1 1 2 3 3 4 4 4 5 5 5
3 5 5 4 2 4 6 5 9 6 10 8 8 9 9 9 8 7 5 5 3 3 3 3 4 3 3 3 3 3 3 2 2 1 1 0 0 0 1 1 1 2 2 3 3 4 5 5 5
3 5 3 2 3 6 5 6 11 8 8 8 8 8 8 8 9 8 8 7 5 5 4 4 5 4 3 3 3 2 2 2 2 1 1 0 0 1 2 2 1 1 2 2 2 2 3 3 4
4 5 5 5 5 3 3 8 10 7 5 6 7 5 5 7 8 9 8 7 6 6 5 5 5 4 3 3 3 3 2 2 1 1 1 1 0 0 1 2 2 2 2 1 1 0 1 1 1
6 4 3 3 1 1 5 7 10 4 4 4 3 3 6 7 7 7 7 6 6 6 5 5 5 5 4 4 4 4 3 3 3 2 2 1 1 1 2 2 2 3 3 2 2 2 2 1 2
3 6 5 3 3 4 4 5 6 5 5 4 3 4 5 6 6 6 6 6 5 5 4 5 5 5 4 4 3 4 4 4 3 3 3 3 3 3 3 4 4 4 4 4 3 3 3 4 4
5 4 4 4 3 3 3 7 6 5 5 6 6 5 6 7 7 6 5 5 5 5 5 5 5 5 4 4 4 5 4 4 4 4 4 3 3 4 4 4 4 5 5 4 5 5 5 5 5
5 6 7 5 4 4 3 8 4 4 6 5 5 5 5 5 5 5 6 5 5 5 5 5 4 4 4 4 4 4 4 4 5 4 4 4 4 5 5 4 5 5 5 5 5 6 6 6 7
Wind_Direction
338 12 52 55 58 62 219 240 237 280 269 270 261 179 160 161 171 194 126 141 137 145 152 154 155 151 146 141 136 133 131 128 124 122 120 118 116 114 113 111 107 103 99 97 98 99 99 98 96
358 29 51 65 104 161 247 240 235 242 277 314 335 93 96 133 103 119 140 155 144 145 148 152 154 151 147 143 140 137 135 131 127 125 124 124 123 121 118 114 110 106 102 101 101 102 101 98 94
22 51 88 95 144 184 219 223 225 281 293 295 349 23 103 118 154 164 163 151 141 142 144 151 152 151 147 145 143 139 136 133 130 128 128 129 129 127 122 117 112 110 108 107 107 106 102 96 92
82 64 67 120 197 209 207 198 224 331 348 11 37 11 359 2 208 167 146 146 139 139 142 151 151 149 146 145 143 140 138 135 132 132 133 135 136 132 126 119 116 115 115 114 112 109 103 96 90
71 107 125 189 217 227 229 228 202 2 335 347 28 17 328 350 63 129 143 148 145 141 144 151 149 149 147 146 144 142 140 138 137 137 138 138 137 133 128 126 125 123 121 119 117 112 105 96 92
97 109 158 203 221 237 241 209 161 350 313 335 56 39 326 25 118 137 146 149 146 143 144 151 149 147 148 148 146 143 142 142 142 142 141 141 139 135 133 133 133 131 128 125 121 116 107 98 96
141 144 183 193 205 230 226 186 174 180 286 276 166 110 310 104 135 138 141 140 139 139 140 145 147 146 147 146 144 144 144 144 144 144 140 136 135 138 140 141 142 140 136 131 126 121 111 100 95
149 138 175 190 193 221 200 164 169 172 231 241 151 163 219 174 141 131 132 136 138 138 141 144 143 143 144 145 145 145 144 142 142 136 129 127 132 137 139 141 145 146 142 140 136 129 116 98 91
123 152 198 196 191 206 172 170 239 163 128 57 243 223 239 139 140 139 140 145 153 154 150 149 145 144 143 143 146 144 143 142 135 129 130 122 117 123 131 144 150 151 150 150 148 139 116 90 72
153 198 212 194 184 175 174 181 204 74 14 9 360 1 115 144 155 160 162 164 167 170 167 159 154 149 146 147 137 135 131 132 126 125 124 118 119 122 128 149 155 157 158 159 162 150 109 88 63
176 202 199 195 186 164 165 185 185 160 246 218 218 199 158 161 167 172 172 173 175 173 172 168 160 154 151 142 141 136 129 130 133 139 136 128 119 115 113 121 136 143 148 133 124 90 90 97 96
177 212 190 186 166 155 176 184 197 207 231 244 224 191 174 177 179 182 181 178 176 176 180 174 165 160 156 148 152 150 148 150 156 159 152 144 143 147 151 157 160 156 146 153 147 143 149 133 148
193 195 185 197 154 164 153 191 210 242 247 265 199 174 189 190 188 187 185 180 177 184 186 181 171 169 163 155 159 162 167 172 171 166 168 166 167 176 177 182 184 186 176 180 190 206 224 242 252
183 173 167 154 157 181 168 256 227 251 235 43 176 197 204 198 189 179 183 187 187 188 189 182 179 176 169 167 170 173 178 177 173 179 183 180 179 182 185 193 198 202 199 198 200 213 227 244 249
143 140 200 214 179 210 130 258 238 249 272 224 232 225 221 213 193 190 191 191 190 188 185 184 183 179 177 177 180 180 183 178 183 192 190 189 189 190 191 197 207 212 202 200 204 220 226 246 247
130 150 194 217 171 177 156 235 244 239 209 242 239 232 228 229 216 207 195 192 189 183 182 187 187 181 182 182 183 182 183 184 192 194 192 196 197 194 192 200 214 211 198 197 205 211 222 239 243
161 181 189 202 182 162 175 233 250 215 197 232 246 238 240 243 239 225 202 194 188 185 180 183 184 180 184 184 183 185 184 191 194 192 194 200 202 198 197 207 214 203 201 207 215 211 207 229 238
175 166 169 188 191 167 193 233 260 229 197 228 243 243 244 244 246 236 207 193 182 178 178 180 179 177 176 173 171 175 186 195 192 194 200 200 202 201 201 209 212 199 203 211 213 221 215 222 232
144 143 162 195 192 173 207 231 244 244 236 239 242 235 235 246 264 268 201 177 162 163 173 179 174 172 162 159 168 175 192 192 192 200 201 201 201 201 203 210 206 201 211 217 212 212 220 228 203
172 159 162 180 172 172 212 244 244 228 226 229 231 232 230 230 246 249 197 146 164 170 170 169 173 168 173 176 166 163 160 176 185 190 196 199 200 201 205 209 209 206 214 219 215 207 208 216 181
203 178 170 155 109 101 140 273 247 243 226 232 232 226 221 214 216 213 194 170 151 156 167 167 168 163 167 166 143 120 112 105 145 187 198 212 205 204 207 212 214 212 212 222 220 212 213 225 209
209 190 166 144 132 200 172 252 264 234 239 235 232 225 222 214 204 196 186 174 164 169 148 140 140 137 140 146 157 166 176 191 195 187 194 211 203 207 214 219 220 220 218 225 226 217 217 219 226
183 138 138 133 124 109 198 230 275 241 238 239 232 223 217 207 197 192 185 174 160 151 139 133 118 104 102 121 151 161 176 188 161 135 175 224 247 229 247 237 233 234 231 233 231 225 220 219 224
138 81 70 64 93 231 205 197 268 230 221 237 231 219 209 198 190 183 170 154 142 128 123 122 115 102 94 104 114 143 164 167 159 169 206 263 301 329 342 305 262 250 248 248 245 236 228 227 227
136 117 112 151 197 239 186 202 249 243 229 227 233 226 209 191 182 175 169 164 154 142 131 122 120 107 92 98 98 111 135 144 160 180 200 204 344 339 334 337 315 287 271 264 256 243 243 232 230
168 148 162 180 198 242 195 229 253 253 262 255 249 234 202 190 183 177 172 164 155 147 137 128 122 113 98 97 91 76 85 106 107 100 109 107 58 316 346 2 9 3 359 343 323 258 272 259 237
150 175 142 105 102 216 240 272 294 266 274 269 244 202 193 182 173 166 158 153 149 142 138 134 124 111 99 99 96 79 75 84 86 76 72 66 36 28 29 34 36 27 25 25 42 55 40 55 57
153 143 120 144 180 232 256 254 251 272 268 267 237 207 191 167 157 152 151 150 145 135 123 116 116 114 103 94 93 91 78 78 81 78 69 62 47 45 49 47 46 41 36 40 57 59 53 70 59
153 158 156 165 184 189 240 264 230 240 256 248 237 211 183 171 164 157 150 144 135 126 123 119 116 111 104 97 91 88 79 75 76 72 61 59 54 52 55 55 57 52 47 47 65 66 64 72 66
177 174 160 175 210 202 211 267 280 267 266 234 214 193 180 170 160 152 146 142 140 139 136 131 127 121 116 110 101 95 88 83 79 72 64 66 66 58 59 61 64 61 57 56 68 73 69 73 72